Location: Ferma
(41.9500°N, 44.5167°E)
Time: 04:52:17
(UTC+00:00)

NOSS 2-3 (D) - Pass Details

Date: 06 June 2022
Orbit: 536 x 1674 km, 63.3° (Epoch: 02 June)

Event Time Altitude Azimuth Distance (km) Brightness Sun altitude
Rises 17:58:08 0° 324° (NW) 3,512 9.4 -12.8°
Reaches altitude 10° 18:00:21 10° 324° (NW) 2,710 8.3 -13.1°
Maximum altitude 18:06:53 87° 237° (WSW) 1,188 4.9 -13.9°
Enters shadow 18:13:24 19° 149° (SSE) 2,821 6.3 -14.7°
